Regional Weather Roundup
Issued by NWS

Home | Current Version | Previous Version | Graphics & Text | Print | Product List | Glossary On
Versions: 1 2 3 4 5 6 7 8 9 10 11 12 13 14 15 16 17 18 19 20 21 22 23 24 25 26 27 28 29 30 31 32 33 34 35 36 37 38 39 40 41 42 43 44 45 46 47 48 49 50
000
ASUS43 KDTX 292001
RWRMI
MICHIGAN HOURLY REGIONAL WEATHER ROUNDUP
NATIONAL WEATHER SERVICE DETROIT/PONTIAC MI
400 PM EDT MON MAY 29 2017

NOTE: "FAIR" INDICATES FEW OR NO CLOUDS BELOW 12,000 FEET WITH NO
SIGNIFICANT WEATHER AND/OR OBSTRUCTION TO VISIBILITY.

MIZ047>049-052>055-059>063-066>070-074>076-081>083-292100-
SOUTHEAST LOWER MICHIGAN

CITY           SKY/WX    TMP DP  RH WIND       PRES   REMARKS
ADRIAN         CLOUDY    78  45  30 W21G31    29.84R
ALMA           MOSUNNY   73  42  32 W22G36    29.78S
ANN ARBOR      LGT RAIN  72  49  44 SW14      29.81S
BAD AXE        MOSUNNY   75  42  30 SW18G26   29.74S
CARO           MOSUNNY   75  45  33 SW18G32   29.75R
DETROIT CITY   MOSUNNY   77  48  35 SW18G25   29.80R
DETROIT        MOSUNNY   80  48  32 W21G30    29.81S
FLINT          CLOUDY    74  41  30 W20G33    29.79R
GROSSE ILE     MOSUNNY   80  51  37 SW10G18   29.81R
HILLSDALE      RAIN      66  52  59 W7        29.84S
HOWELL         PTSUNNY   73  40  29 SW15      29.81R

CITY           SKY/WX    TMP DP  RH WIND       PRES   REMARKS
JACKSON        CLOUDY    72  47  40 W10       29.83R
LAMBERTVILLE   MOSUNNY   77  50  39 SW10G18   29.83S
LANSING        MOSUNNY   77  41  27 W22G38    29.81R
LAPEER         LGT RAIN  69  48  47 SW15G25   29.79R
MASON          CLOUDY    75  45  34 W9G24     29.81S
MONROE         PTSUNNY   77  51  41 W14G21    29.81F
MT. CLEMENS    CLOUDY    78  47  32 W13G26    29.78R
PONTIAC        CLOUDY    75  44  33 W13G23    29.79R
PORT HOPE        N/A     78  43  28 W16G28    29.71R
PORT HURON     CLOUDY    75  55  50 S10G20    29.78S
TRI CITIES     MOSUNNY   76  45  33 W29G36    29.75S
MIDLAND        PTSUNNY   75  38  26 SW21G31   29.74R
TROY           PTSUNNY   78  39  24 W16G24    29.82R
SAGINAW HB     CLOUDY    77  34  20 W21G31    29.75S
$$
MIZ043>046-050>051-056>058-064>065-071>073-077>080-292100-
SOUTHWEST LOWER MICHIGAN

CITY           SKY/WX    TMP DP  RH WIND       PRES   REMARKS
BATTLE CREEK   CLOUDY    76  46  34 W20G35    29.82F
BENTON HARBOR  SUNNY     75  47  36 SW16      29.83S
BIG RAPIDS     PTSUNNY   67  40  36 W18G30    29.78R
COLDWATER      CLOUDY    76  46  33 W14       29.83S
FREMONT        FAIR      72  40  31 W16G24    29.79S
HOLLAND        MOSUNNY   71  46  40 W14       29.83R
GRAND RAPIDS   MOSUNNY   75  46  35 W23G35    29.80S
IONIA          FAIR      76  43  31 W24G37    29.79S
KALAMAZOO      MOSUNNY   77  42  28 W20G35    29.82S
LUDINGTON      CLOUDY    61  50  68 SW10      29.78R
MARSHALL       CLOUDY    76  45  33 W17G24    29.82S
MOUNT PLEASANT SUNNY     74  38  28 SW28G38   29.75R
MUSKEGON       MOSUNNY   68  46  45 SW10      29.81S
SOUTH HAVEN    SUNNY     72  49  43 W13G21    29.83R
$$
MIZ016>042-292100-
NORTHERN LOWER MICHIGAN

CITY           SKY/WX    TMP DP  RH WIND       PRES   REMARKS
ALPENA         MOSUNNY   71  50  47 N8        29.67F
BEAVER ISLAND  CLOUDY    64  49  59 SW13G20   29.68S
BELLAIRE       CLOUDY    66  46  47 SW9G16    29.71R
CADILLAC       CLOUDY    67  45  44 W22G30    29.75R
CHARLEVOIX     SUNNY     67  48  50 SW20G28   29.72S
FRANKFORT      CLOUDY    58  46  65 SW10G17   29.76R
GAYLORD        PTSUNNY   68  43  40 W17G26    29.70R
GRAYLING       PTSUNNY   69  43  39 SW15G28   29.72R
HARBOR SPRINGS MOSUNNY   64  48  55 W9G16     29.69S
HOUGHTON LAKE  MOSUNNY   70  44  39 W17G30    29.72R
MANISTEE       MOSUNNY   65  49  56 SW17G23   29.76R
OSCODA         MOSUNNY   79  35  21 SW25G32   29.67S
PELLSTON       SUNNY     68  44  42 SW18G28   29.69R
ROGERS CITY    LGT RAIN  62  55  78 E6        29.68F
TRAVERSE CITY  CLOUDY    67  46  47 W22G37    29.71R
$$
MIZ007>008-015-292100-
EASTERN UPPER MICHIGAN

CITY           SKY/WX    TMP DP  RH WIND       PRES   REMARKS
KINROSS        SUNNY     65  45  48 SW13G20   29.66R
MACKINAC ISLAN SUNNY     61  48  63 W14G29    29.68R
NEWBERRY       CLOUDY    57  52  83 S16G24    29.66R
S. S. MARIE    MOSUNNY   66  46  48 SW15G24   29.64R
MUNISING         N/A     53  51  93 NW10      29.64R
$$
MIZ004>006-011>014-085-292100-
CENTRAL UPPER MICHIGAN

CITY           SKY/WX    TMP DP  RH WIND       PRES   REMARKS
MANISTIQUE     CLOUDY    52  49  89 S14G21    29.66R
ESCANABA       CLOUDY    58  53  84 S8        29.65R
SAWYER-GWINN   CLOUDY    57  48  72 W14       29.64R
$$
MIZ001>003-009>011-084-292100-
WESTERN UPPER MICHIGAN

CITY           SKY/WX    TMP DP  RH WIND       PRES   REMARKS
IRON MOUNTAIN  LGT RAIN  60  45  57 SW14G24   29.65R
HOUGHTON       LGT RAIN  53  49  86 W22G29    29.62R
COPPER HARBOR    N/A     51  48  89 NW10G20   29.60R
IRONWOOD       CLOUDY    59  53  80 W16G23    29.68S
$$

ABBREVIATIONS USED IN REMARKS
   TC - TEMPERATURE IN CELSIUS
  WCI - WIND CHILL INDEX
   HX - HEAT INDEX
  VSB - VISIBILITY





USA.gov is the U.S. government's official web portal to all federal, state and local government web resources and services.